User: anonymous   Login
Location: Unspecified
(0.0000°N, 0.0000°E)
Time: 21:54:53
(UTC+00:00)
Language:

Cosmos 1574 - Orbit

View from above orbital plane
View from above orbital plane
View from above satellite
View from above satellite

Ground track
Ground track

The orbit data is extracted from the following two-line orbital elements,

1 15055U 84062A   17082.92082132 +.00000044 +00000-0 +30249-4 0  9991
2 15055 082.9575 048.5214 0028816 091.4254 321.2562 13.74284989642332
Epoch (UTC): 23 March 2017 22:05:58
Eccentricity: 0.0028816
inclination: 82.9575°
perigee height: 963 km
apogee height: 1005 km
right ascension of ascending node: 48.5214°
argument of perigee: 91.4254°
revolutions per day: 13.74284989
mean anomaly at epoch: 321.2562°
orbit number at epoch: 64233

The dashed part of the orbit path shows where the satellite is in the earth's shadow,  

DLR